STARLINK-32804, 62846

Orbit data source: Space-Track

STARLINK-32804, 62846 is a payload satellite owned by SpaceX/Seattle (US) in LEO that was launched on Mon, 27 Jan 2025 UTC via an FALCON 9 launch vehicle from the Air Force Eastern Test Range (AFETR). Payload-class satellites include a variety of spacecraft equipped with specific instruments for various scientific and technological missions. These include communications satellites like Starlink; space stations such as the ISS; scientific satellites like the Hubble; Earth observation satellites from companies like Planet Labs, Umbra, and HawkEye 360; GPS; miniature CubeSats for education and research; and military/defense satellites.

Loading next visibility...
Identifier
62846, 2025-019T
Orbit
LEO
Country
Flag of USUS
Related business
Manufacturer
SpaceX/Seattle
Mission
Operational Commercial Communications
Bus & Motor
STARLINK V2M, Unknown motor
Mass
730 kg wet, ~700 kg dry
Launch date (UTC)
2025-01-27 (8 months ago)
Launch vehicle
FALCON 9
Launch site
Air Force Eastern Test Range (AFETR)
Object type
Payload
Rocket body
Debris
Shape & HBR
Box + 2 Pan, 14.5 m
Radar Cross Section
33.884 m², Large (>1 m²)

Expand to show TLE details & history
Last TLE update: 16 hours ago

TLE from 16 hours ago
0 STARLINK-32804
1 62846U 25019T   25258.73596749  .00031706  00000-0  11576-2 0  9994
2 62846  43.0040 357.0615 0002518 258.0496 102.0074 15.27554989 35496
Epoch: 2025-09-15T17:39Z
TLE epoch observation values (Epoch: 2025-09-15T17:39:47.591Z)
Latitude
0.00003°
Longitude
97.17689°
Altitude
483.26 km
Speed
7.625 km/s
True Right ascension
23h 48m 14s
True Declination
0° 00' 00"
Sunlit
Object was in full shadow at epoch
Visualization orbit readout
Latitude
Unknown
Longitude
Unknown
Altitude
Unknown
Speed
Unknown
Apparent Right ascension
Unknown
Apparent Declination
Unknown
Sunlit
N/A
Visualization observer readout
Local Sidereal Time
02:33:58
Azimuth
Unknown
Elevation
Unknown
Doppler factor
Unknown
Orbital elements
Apogee altitude
486.797 km
Perigee altitude
483.34 km
Semi-major axis
6,863.205 km
Eccentricity
0.00025
Inclination
43.004°
RAAN
357.0615°
Arg. of periapsis
258.0496°
True anomaly
102.03562°
Mean anomaly
102.0074°
Eccentric anomaly
102.02151°
Mean motion
3.81727 °/min
Orbital period
94.31 mins
BSTAR
0.0011576
Loading maneuver chart data...
Computing Atmospheric mass density...
Loading historical data...
Loading historical data...
Loading historical data...
Loading historical data...
Loading historical data...
Loading historical data...
Loading historical data...

Documentation

Showing up to 5 results
|